| time (UTC) | temp F | wind direction | speed MPH | gust MPH | rain 1hr in | rain 24hr in | rain mn in | humidity % | barometer mb |
| 20260905160337 | 88 | 189 | 5.0 | 8.0 | 0.00 | 0.05 | 0.00 | 51 | 1014.8 |
| 20260905154826 | 87 | 194 | 1.0 | 8.0 | 0.00 | 0.05 | 0.00 | 54 | 1014.7 |
| 20260905153317 | 85 | 186 | 4.0 | 10.0 | 0.00 | 0.05 | 0.00 | 56 | 1014.8 |
| 20260905151826 | 84 | 202 | 5.0 | 8.0 | 0.00 | 0.05 | 0.00 | 56 | 1014.8 |
| 20260905150339 | 83 | 192 | 3.0 | 7.0 | 0.00 | 0.05 | 0.00 | 57 | 1014.9 |
| 20260905144829 | 82 | 220 | 3.0 | 6.0 | 0.00 | 0.05 | 0.00 | 59 | 1014.9 |
| 20260905143322 | 81 | 168 | 3.0 | 11.0 | 0.00 | 0.05 | 0.00 | 61 | 1014.8 |
| 20260905141831 | 79 | 169 | 4.0 | 11.0 | 0.00 | 0.05 | 0.00 | 64 | 1014.7 |
| 20260905140325 | 78 | 186 | 5.0 | 11.0 | 0.00 | 0.05 | 0.00 | 66 | 1014.6 |
| 20260905134820 | 77 | 183 | 4.0 | 10.0 | 0.00 | 0.05 | 0.00 | 68 | 1014.6 |
| 20260905133351 | 76 | 181 | 3.0 | 9.0 | 0.00 | 0.05 | 0.00 | 70 | 1014.6 |
| 20260905131816 | 75 | 181 | 3.0 | 7.0 | 0.00 | 0.05 | 0.00 | 72 | 1014.5 |
| 20260905130309 | 74 | 182 | 3.0 | 6.0 | 0.00 | 0.05 | 0.00 | 73 | 1014.3 |
| 20260905124801 | 74 | 180 | 3.0 | 7.0 | 0.00 | 0.05 | 0.00 | 73 | 1014.2 |
| 20260905123313 | 74 | 174 | 3.0 | 7.0 | 0.00 | 0.05 | 0.00 | 73 | 1014.1 |
| 20260905121803 | 74 | 165 | 3.0 | 7.0 | 0.00 | 0.05 | 0.00 | 73 | 1013.8 |
| 20260905120317 | 74 | 180 | 2.0 | 4.0 | 0.00 | 0.05 | 0.00 | 73 | 1013.7 |
| 20260905114806 | 74 | 177 | 3.0 | 4.0 | 0.00 | 0.05 | 0.00 | 72 | 1013.6 |
| 20260905113318 | 74 | 182 | 3.0 | 7.0 | 0.00 | 0.05 | 0.00 | 72 | 1013.6 |
| 20260905111828 | 74 | 181 | 3.0 | 8.0 | 0.00 | 0.05 | 0.00 | 72 | 1013.7 |
| 20260905110317 | 74 | 175 | 2.0 | 5.0 | 0.00 | 0.05 | 0.00 | 71 | 1013.7 |
| 20260905104806 | 74 | 176 | 4.0 | 6.0 | 0.00 | 0.05 | 0.00 | 71 | 1013.7 |
| 20260905103303 | 74 | 177 | 2.0 | 5.0 | 0.00 | 0.05 | 0.00 | 70 | 1013.7 |
| 20260905101813 | 75 | 175 | 2.0 | 4.0 | 0.00 | 0.05 | 0.00 | 70 | 1013.7 |
| 20260905100308 | 75 | 177 | 2.0 | 4.0 | 0.00 | 0.05 | 0.00 | 70 | 1013.6 |
| 20260905094846 | 75 | 212 | 2.0 | 6.0 | 0.00 | 0.05 | 0.00 | 69 | 1013.6 |
| 20260905093332 | 75 | 180 | 3.0 | 5.0 | 0.00 | 0.05 | 0.00 | 68 | 1013.8 |
| 20260905091801 | 75 | 170 | 3.0 | 6.0 | 0.00 | 0.05 | 0.00 | 67 | 1013.7 |
| 20260905090315 | 76 | 179 | 3.0 | 6.0 | 0.00 | 0.05 | 0.00 | 66 | 1013.7 |
| 20260905084807 | 76 | 173 | 3.0 | 8.0 | 0.00 | 0.05 | 0.00 | 65 | 1013.7 |
| 20260905083300 | 76 | 176 | 2.0 | 9.0 | 0.00 | 0.05 | 0.00 | 64 | 1013.6 |
| 20260905081813 | 76 | 173 | 4.0 | 7.0 | 0.00 | 0.05 | 0.00 | 64 | 1013.5 |
| 20260905080326 | 76 | 164 | 4.0 | 9.0 | 0.00 | 0.05 | 0.00 | 64 | 1013.5 |
| 20260905074812 | 77 | 174 | 2.0 | 4.0 | 0.00 | 0.05 | 0.00 | 64 | 1013.5 |
| 20260905073306 | 77 | 175 | 1.0 | 2.0 | 0.00 | 0.05 | 0.00 | 62 | 1013.7 |
| 20260905071817 | 78 | 175 | 1.0 | 3.0 | 0.00 | 0.05 | 0.00 | 62 | 1013.7 |
| 20260905070313 | 78 | 177 | 2.0 | 4.0 | 0.00 | 0.05 | 0.00 | 61 | 1013.7 |
| 20260905064825 | 78 | 180 | 1.0 | 4.0 | 0.00 | 0.05 | 0.00 | 61 | 1013.6 |
| 20260905063300 | 78 | 178 | 2.0 | 7.0 | 0.00 | 0.05 | 0.00 | 60 | 1013.7 |
| 20260905061809 | 78 | 178 | 2.0 | 7.0 | 0.00 | 0.05 | 0.00 | 60 | 1013.7 |
| 20260905060322 | 79 | 172 | 2.0 | 6.0 | 0.00 | 0.05 | 0.00 | 59 | 1013.5 |
| 20260905054839 | 79 | 167 | 1.0 | 3.0 | 0.00 | 0.05 | 0.00 | 57 | 1013.4 |
| 20260905053311 | 79 | 172 | 3.0 | 7.0 | 0.00 | 0.05 | 0.00 | 56 | 1013.4 |
| 20260905051803 | 80 | 169 | 1.0 | 2.0 | 0.00 | 0.05 | 0.00 | 55 | 1013.4 |
| 20260905050314 | 80 | 167 | 2.0 | 5.0 | 0.00 | 0.05 | 0.00 | 54 | 1013.5 |
| 20260905044813 | 81 | 178 | 3.0 | 6.0 | 0.00 | 0.05 | 0.05 | 53 | 1013.4 |
| 20260905043307 | 81 | 175 | 4.0 | 6.0 | 0.00 | 0.05 | 0.05 | 53 | 1013.4 |
| 20260905041821 | 81 | 173 | 2.0 | 6.0 | 0.00 | 0.05 | 0.05 | 52 | 1013.4 |
| 20260905040314 | 82 | 180 | 3.0 | 7.0 | 0.00 | 0.05 | 0.05 | 52 | 1013.2 |
| 20260905034811 | 82 | 181 | 2.0 | 7.0 | 0.00 | 0.05 | 0.05 | 51 | 1013.3 |
| 20260905033324 | 83 | 171 | 2.0 | 3.0 | 0.00 | 0.05 | 0.05 | 50 | 1013.3 |
| 20260905031815 | 84 | 180 | 1.0 | 7.0 | 0.00 | 0.05 | 0.05 | 49 | 1013.2 |
| 20260905030326 | 84 | 177 | 3.0 | 7.0 | 0.00 | 0.05 | 0.05 | 48 | 1013.0 |
| 20260905024801 | 85 | 171 | 3.0 | 5.0 | 0.00 | 0.05 | 0.05 | 47 | 1013.0 |
| 20260905023314 | 85 | 170 | 2.0 | 9.0 | 0.00 | 0.05 | 0.05 | 47 | 1012.7 |
| 20260905021811 | 86 | 189 | 4.0 | 9.0 | 0.00 | 0.05 | 0.05 | 46 | 1012.4 |
| 20260905020304 | 86 | 192 | 5.0 | 10.0 | 0.00 | 0.05 | 0.05 | 45 | 1012.3 |
| 20260905014813 | 86 | 193 | 4.0 | 11.0 | 0.00 | 0.05 | 0.05 | 45 | 1012.2 |
| 20260905013306 | 87 | 187 | 5.0 | 10.0 | 0.00 | 0.05 | 0.05 | 45 | 1012.0 |
| 20260905011801 | 87 | 179 | 5.0 | 10.0 | 0.00 | 0.05 | 0.05 | 44 | 1011.9 |
| 20260905010311 | 88 | 194 | 5.0 | 9.0 | 0.00 | 0.05 | 0.05 | 44 | 1011.9 |
| 20260905004810 | 88 | 182 | 6.0 | 12.0 | 0.00 | 0.05 | 0.05 | 43 | 1011.9 |
| 20260905003302 | 89 | 180 | 5.0 | 12.0 | 0.00 | 0.05 | 0.05 | 42 | 1011.8 |
| 20260905001813 | 90 | 177 | 5.0 | 11.0 | 0.00 | 0.05 | 0.05 | 42 | 1011.9 |
| 20260905000304 | 91 | 175 | 6.0 | 13.0 | 0.00 | 0.05 | 0.05 | 42 | 1011.8 |
| 20260904234803 | 92 | 194 | 8.0 | 17.0 | 0.00 | 0.05 | 0.05 | 41 | 1011.8 |
| 20260904233309 | 94 | 220 | 7.0 | 18.0 | 0.00 | 0.05 | 0.05 | 40 | 1011.6 |
| 20260904231802 | 95 | 202 | 7.0 | 12.0 | 0.00 | 0.05 | 0.05 | 38 | 1011.2 |
| 20260904230300 | 96 | 182 | 5.0 | 11.0 | 0.00 | 0.05 | 0.05 | 37 | 1010.6 |
| 20260904224812 | 96 | 76 | 3.0 | 9.0 | 0.01 | 0.05 | 0.05 | 36 | 1010.3 |
| 20260904223300 | 95 | 65 | 2.0 | 10.0 | 0.04 | 0.05 | 0.05 | 39 | 1010.5 |
| 20260904221833 | 93 | 154 | 2.0 | 10.0 | 0.05 | 0.05 | 0.05 | 44 | 1010.6 |
| 20260904220301 | 88 | 186 | 5.0 | 12.0 | 0.05 | 0.05 | 0.05 | 56 | 1010.7 |
| 20260904214812 | 87 | 43 | 11.0 | 17.0 | 0.04 | 0.04 | 0.04 | 53 | 1010.6 |
| 20260904213303 | 94 | 63 | 10.0 | 19.0 | 0.01 | 0.01 | 0.01 | 43 | 1010.9 |
| 20260904211816 | 100 | 188 | 3.0 | 13.0 | 0.00 | 0.00 | 0.00 | 33 | 1010.8 |
| 20260904210325 | 100 | 175 | 6.0 | 11.0 | 0.00 | 0.00 | 0.00 | 34 | 1010.7 |
| 20260904204816 | 100 | 166 | 4.0 | 8.0 | 0.00 | 0.00 | 0.00 | 32 | 1011.2 |
| 20260904203307 | 98 | 214 | 3.0 | 8.0 | 0.00 | 0.00 | 0.00 | 34 | 1011.6 |
| 20260904201801 | 98 | 203 | 5.0 | 11.0 | 0.00 | 0.00 | 0.00 | 34 | 1012.0 |
| 20260904200313 | 98 | 193 | 4.0 | 8.0 | 0.00 | 0.00 | 0.00 | 37 | 1012.3 |
| 20260904194806 | 97 | 183 | 2.0 | 8.0 | 0.00 | 0.00 | 0.00 | 37 | 1012.4 |
| 20260904193337 | 96 | 192 | 3.0 | 12.0 | 0.00 | 0.00 | 0.00 | 39 | 1012.5 |
| 20260904191811 | 96 | 183 | 4.0 | 10.0 | 0.00 | 0.00 | 0.00 | 40 | 1012.6 |
| 20260904190302 | 95 | 183 | 6.0 | 10.0 | 0.00 | 0.00 | 0.00 | 41 | 1012.9 |
| 20260904184836 | 95 | 180 | 6.0 | 12.0 | 0.00 | 0.00 | 0.00 | 41 | 1013.0 |
| 20260904183306 | 95 | 175 | 5.0 | 10.0 | 0.00 | 0.00 | 0.00 | 42 | 1013.0 |
| 20260904181816 | 94 | 181 | 9.0 | 18.0 | 0.00 | 0.00 | 0.00 | 42 | 1013.1 |
| 20260904180306 | 93 | 186 | 5.0 | 12.0 | 0.00 | 0.00 | 0.00 | 43 | 1013.4 |
| 20260904174816 | 92 | 198 | 6.0 | 12.0 | 0.00 | 0.00 | 0.00 | 45 | 1013.5 |
| 20260904173307 | 92 | 189 | 7.0 | 13.0 | 0.00 | 0.00 | 0.00 | 45 | 1013.7 |
| 20260904171839 | 91 | 213 | 5.0 | 12.0 | 0.00 | 0.00 | 0.00 | 47 | 1013.9 |
| 20260904170307 | 91 | 190 | 4.0 | 13.0 | 0.00 | 0.00 | 0.00 | 47 | 1014.0 |
| 20260904164816 | 90 | 181 | 5.0 | 10.0 | 0.00 | 0.00 | 0.00 | 49 | 1014.1 |
| 20260904163308 | 89 | 224 | 6.0 | 10.0 | 0.00 | 0.00 | 0.00 | 50 | 1014.0 |
| 20260904161818 | 88 | 168 | 6.0 | 13.0 | 0.00 | 0.00 | 0.00 | 51 | 1014.0 |